Vorticity
1 5 14 9 12 -1 14 2 -0 1 1 1 2 2 3 3 3 4 5 6 7 7 7 7 8 8 9 9 10 9 7 5 6 6 6 5 5 6 9 11 10 11 10
-3 2 -1 2 15 12 2 -1 0 0 2 2 2 2 3 4 5 5 5 6 6 8 8 10 9 8 9 10 10 8 6 6 4 2 5 7 7 6 3 5 5 5 7
6 -2 -5 14 3 1 -1 2 1 2 2 2 2 4 5 6 6 6 8 10 11 11 10 10 11 9 9 6 9 9 8 10 10 9 7 9 8 8 6 3 2 -1 -0
9 9 5 9 0 -1 1 1 2 2 2 4 4 5 7 7 5 7 11 13 12 10 7 8 8 7 6 6 6 6 7 8 6 6 8 7 6 6 8 6 1 1 3
9 14 8 0 0 1 1 2 3 3 4 4 5 8 8 3 9 10 6 6 5 8 8 7 8 6 4 3 3 4 5 5 6 5 3 7 8 7 5 5 5 3 0
8 1 0 1 1 1 2 2 3 3 6 7 10 3 6 9 11 11 9 10 9 9 8 8 7 4 2 4 4 5 4 5 6 5 9 7 5 5 5 2 2 1 -1
2 0 1 2 1 2 2 1 2 8 6 5 10 9 11 10 12 4 -5 5 13 10 10 5 3 3 4 1 2 6 9 10 11 12 11 10 8 6 3 4 3 -1 0
0 0 1 1 2 -2 11 7 -5 4 3 5 3 7 20 7 15 11 -3 3 12 12 4 1 2 5 8 8 8 11 11 15 13 8 7 8 10 14 18 12 4 4 3
0 1 1 -1 8 -3 7 9 4 9 1 13 7 -19 18 -0 2 5 0 8 7 12 6 4 6 -1 -1 4 5 1 9 10 7 7 8 7 7 10 10 9 13 14 14
3 13 7 1 -0 -2 10 -5 -6 -1 19 10 11 -11 22 -1 -4 1 8 -1 7 6 6 6 5 9 3 10 4 3 0 6 8 7 9 15 22 28 26 25 28 21 24
6 6 7 14 3 3 7 5 -2 1 -17 3 13 -3 7 25 10 4 2 8 11 4 2 6 7 6 4 3 6 9 6 6 6 8 19 32 33 30 18 25 23 25 30
4 7 10 9 4 4 -9 -1 9 18 18 0 9 -3 7 9 -16 4 3 11 6 3 4 6 7 7 7 6 8 7 7 8 15 30 32 28 23 20 26 17 10 8 6
10 6 9 6 12 2 15 -9 8 9 7 6 6 7 21 -5 11 2 10 -1 -2 4 8 3 5 5 8 8 7 8 8 20 30 28 24 22 24 24 27 22 25 24 28
6 3 12 5 4 1 11 -10 4 -2 -12 -2 6 25 -18 11 4 6 12 4 -10 3 8 12 7 5 4 5 4 14 27 32 17 18 22 25 21 18 18 24 24 18 19
13 17 9 11 1 -0 13 12 -11 11 -8 11 31 -19 -9 13 -1 10 3 11 -5 -3 16 3 9 6 7 5 8 25 29 7 16 22 27 18 16 16 17 17 18 22 24
6 0 14 5 -2 -5 9 10 1 1 49 -26 -1 18 -5 20 3 1 3 4 4 6 13 6 6 7 10 15 20 30 16 8 15 28 21 15 18 18 18 17 17 18 18
3 13 5 -4 11 -1 7 10 13 20 10 -10 -11 12 13 9 8 2 -8 4 -1 15 9 5 7 9 15 19 25 17 5 9 22 25 15 18 19 17 16 19 19 19 18
12 7 4 -4 6 -1 7 6 12 20 -10 -2 14 5 11 2 20 2 1 -3 10 8 8 7 11 15 21 23 20 11 7 9 25 17 17 18 14 14 15 17 16 17 18
-0 14 11 10 6 5 6 7 9 7 10 10 6 1 24 7 -2 12 0 7 13 6 7 10 14 20 20 20 12 6 9 16 22 15 16 13 10 14 12 17 15 18 20
12 6 9 6 6 8 5 8 9 8 15 6 1 1 -5 -0 1 6 16 11 4 7 11 16 19 21 21 14 6 7 12 21 17 16 14 10 11 10 16 13 17 20 18
9 7 8 6 9 5 8 9 9 10 7 7 9 -1 8 7 11 16 9 7 8 14 16 18 22 20 13 7 6 11 16 23 14 15 11 9 10 9 14 11 18 19 14
6 7 7 7 7 10 9 10 10 9 7 7 7 6 10 13 14 10 7 7 13 15 19 20 18 10 6 7 11 12 22 19 15 12 10 9 10 12 10 11 17 19 16
7 7 7 9 11 8 9 10 7 7 6 6 9 12 14 12 9 7 7 10 15 19 19 17 11 5 8 10 10 18 22 14 15 12 9 9 11 13 11 13 15 18 17
8 8 8 9 8 10 11 8 7 6 9 13 12 10 10 9 8 9 10 16 20 22 16 9 8 9 9 9 15 21 19 12 16 10 10 7 8 12 12 15 15 18 15
7 8 9 9 11 9 8 7 9 11 10 8 6 9 8 8 10 11 16 23 20 14 7 10 9 6 7 13 21 21 15 11 14 10 9 7 9 11 13 15 15 17 14
9 10 10 13 10 8 12 12 9 7 9 10 9 9 8 12 15 16 20 17 14 8 9 9 5 11 19 22 22 20 12 12 13 11 7 8 10 11 13 12 15 15 14
Height
5803 5804 5806 5807 5807 5809 5809 5809 5811 5811 5810 5807 5804 5802 5800 5797 5795 5792 5790 5786 5782 5779 5776 5773 5769 5766 5762 5759 5757 5755 5753 5751 5749 5747 5745 5743 5742 5742 5743 5743 5742 5742 5741
5801 5804 5803 5806 5803 5805 5806 5807 5807 5806 5805 5803 5800 5797 5794 5792 5788 5785 5781 5778 5774 5770 5767 5764 5761 5757 5755 5752 5749 5748 5746 5744 5741 5739 5737 5735 5732 5731 5731 5732 5733 5732 5732
5799 5802 5801 5802 5803 5803 5805 5805 5805 5802 5800 5797 5794 5791 5789 5785 5782 5777 5773 5768 5765 5761 5758 5754 5751 5748 5745 5743 5741 5739 5736 5734 5732 5730 5727 5725 5723 5722 5720 5718 5719 5720 5719
5797 5798 5798 5800 5800 5801 5802 5801 5800 5797 5794 5791 5788 5785 5782 5778 5773 5768 5764 5760 5755 5750 5748 5744 5741 5739 5737 5734 5732 5729 5727 5724 5722 5719 5717 5715 5712 5711 5710 5708 5705 5704 5705
5793 5795 5795 5798 5797 5798 5797 5795 5792 5790 5787 5784 5781 5778 5774 5769 5764 5759 5754 5750 5746 5742 5738 5736 5732 5730 5727 5725 5722 5718 5714 5711 5708 5706 5704 5702 5700 5697 5696 5694 5694 5692 5689
5790 5792 5793 5794 5794 5792 5791 5789 5786 5784 5781 5777 5773 5769 5765 5760 5755 5750 5746 5743 5738 5734 5730 5726 5722 5719 5717 5713 5709 5705 5701 5697 5694 5690 5687 5685 5683 5680 5679 5678 5677 5676 5675
5789 5789 5790 5789 5787 5788 5785 5783 5781 5777 5773 5768 5765 5760 5757 5750 5745 5740 5737 5733 5729 5724 5720 5716 5711 5707 5701 5698 5695 5690 5685 5680 5675 5671 5667 5665 5662 5660 5657 5655 5653 5653 5653
5786 5786 5784 5783 5783 5781 5779 5776 5773 5769 5765 5761 5755 5751 5744 5740 5739 5733 5728 5723 5718 5712 5707 5703 5699 5693 5688 5681 5675 5671 5666 5660 5655 5650 5646 5642 5639 5635 5631 5628 5626 5625 5625
5781 5781 5779 5778 5776 5774 5771 5768 5765 5760 5756 5752 5746 5741 5734 5729 5724 5719 5716 5710 5705 5699 5694 5689 5683 5677 5671 5664 5657 5651 5647 5639 5634 5628 5622 5617 5612 5607 5602 5598 5594 5593 5593
5777 5775 5773 5770 5768 5765 5763 5759 5754 5750 5746 5742 5737 5731 5726 5720 5713 5706 5701 5697 5692 5686 5679 5672 5665 5659 5653 5644 5637 5632 5624 5617 5609 5601 5592 5584 5575 5569 5563 5559 5556 5555 5556
5770 5768 5765 5761 5759 5756 5754 5749 5745 5741 5737 5731 5726 5720 5713 5708 5703 5696 5689 5680 5673 5668 5662 5655 5647 5640 5632 5625 5616 5607 5599 5589 5578 5569 5559 5549 5540 5533 5529 5527 5525 5524 5524
5762 5759 5755 5752 5749 5746 5744 5740 5736 5732 5726 5720 5714 5708 5700 5695 5689 5683 5677 5670 5662 5654 5647 5638 5629 5621 5613 5603 5594 5581 5574 5564 5552 5541 5529 5519 5512 5507 5503 5502 5500 5499 5499
5754 5750 5747 5744 5741 5738 5734 5730 5725 5720 5715 5708 5701 5695 5689 5683 5677 5669 5662 5655 5646 5636 5627 5620 5613 5603 5592 5582 5571 5562 5550 5540 5526 5514 5504 5495 5488 5483 5480 5477 5476 5475 5475
5745 5742 5738 5736 5733 5729 5724 5719 5714 5708 5702 5694 5689 5682 5676 5669 5662 5654 5647 5639 5631 5621 5611 5602 5593 5584 5574 5562 5551 5539 5524 5514 5505 5493 5483 5475 5469 5463 5459 5456 5454 5453 5453
5736 5733 5731 5727 5724 5720 5715 5708 5704 5698 5691 5683 5676 5670 5661 5653 5645 5638 5631 5623 5615 5608 5596 5582 5572 5562 5554 5542 5530 5519 5506 5496 5486 5476 5467 5460 5454 5448 5443 5439 5436 5433 5432
5728 5725 5723 5720 5715 5710 5704 5699 5692 5684 5677 5670 5662 5656 5647 5639 5630 5623 5615 5606 5597 5588 5580 5565 5553 5543 5532 5519 5507 5498 5490 5480 5470 5461 5453 5446 5440 5434 5428 5423 5420 5417 5415
5719 5716 5714 5709 5704 5699 5693 5686 5682 5673 5664 5655 5650 5642 5632 5625 5616 5606 5598 5589 5578 5568 5559 5551 5536 5524 5514 5504 5491 5482 5475 5466 5456 5447 5441 5434 5428 5422 5417 5412 5407 5403 5401
5710 5707 5702 5698 5693 5688 5680 5673 5668 5661 5652 5643 5634 5624 5617 5608 5600 5590 5580 5570 5558 5549 5539 5532 5519 5506 5494 5485 5477 5470 5460 5450 5441 5434 5428 5422 5416 5411 5406 5400 5395 5392 5388
5702 5696 5692 5688 5681 5674 5666 5659 5651 5644 5636 5628 5620 5612 5602 5593 5585 5573 5562 5551 5541 5530 5520 5510 5502 5489 5479 5470 5463 5455 5446 5436 5428 5422 5416 5411 5406 5400 5394 5389 5384 5380 5378
5689 5684 5679 5673 5667 5659 5652 5644 5637 5630 5621 5613 5605 5597 5588 5577 5567 5555 5544 5535 5525 5514 5503 5491 5482 5474 5465 5456 5448 5441 5433 5423 5416 5410 5405 5400 5395 5389 5384 5379 5374 5371 5369
5677 5672 5666 5659 5652 5647 5640 5631 5622 5615 5608 5600 5590 5581 5571 5560 5550 5539 5528 5518 5506 5497 5486 5475 5467 5458 5451 5443 5434 5427 5419 5412 5406 5399 5395 5389 5384 5378 5373 5370 5366 5362 5360
5664 5658 5652 5645 5639 5632 5624 5616 5608 5600 5592 5583 5574 5564 5553 5543 5532 5522 5514 5504 5491 5478 5468 5460 5452 5444 5438 5430 5422 5414 5406 5401 5396 5389 5385 5381 5374 5370 5365 5360 5357 5354 5352
5651 5645 5638 5631 5624 5616 5608 5599 5591 5584 5576 5566 5557 5546 5535 5524 5515 5504 5495 5484 5474 5464 5455 5446 5439 5433 5424 5415 5409 5402 5395 5390 5386 5381 5376 5372 5366 5361 5356 5351 5348 5346 5344
5637 5630 5623 5615 5607 5599 5591 5583 5576 5569 5560 5550 5539 5529 5518 5507 5495 5486 5473 5464 5456 5447 5439 5433 5425 5419 5410 5403 5396 5389 5384 5379 5376 5372 5367 5364 5358 5353 5348 5342 5339 5337 5335
5622 5614 5607 5599 5591 5583 5576 5568 5559 5552 5543 5533 5521 5511 5500 5488 5475 5465 5453 5446 5439 5430 5421 5417 5410 5404 5397 5390 5382 5377 5373 5370 5367 5363 5359 5355 5350 5345 5341 5334 5330 5328 5326
5607 5599 5591 5585 5577 5569 5560 5550 5541 5533 5526 5516 5506 5494 5482 5471 5455 5444 5435 5426 5421 5413 5403 5398 5397 5387 5380 5375 5370 5366 5362 5359 5357 5355 5350 5347 5342 5337 5335 5328 5322 5320 5318